This demonstration page uses our WeatherBlox Daily Observations layout. Learn more.

Left ArrowRight Arrow

41.12389, -100.76542

Hourly Observations for August 9, 2019

Temp ( °F °C ) Dew Point ( °F °C ) Humidity (%) Winds ( mph kmh ) Pressure ( in mb ) Visibility ( mi km ) Precip ( " mm )
12:53 am 00:53 Clear 67 19.4 65 18.3 93 93 E 6 9 29.93 1014 10 16 0.00 0.00
1:53 am 01:53 Clear 67 19.4 65 18.3 93 93 Calm 29.93 1014 10 16 0.00 0.00
2:53 am 02:53 Mostly Clear 67 19.4 65 18.3 93 93 SE 5 7 29.93 1013 10 16 0.00 0.00
3:15 am 03:15 Mostly Cloudy 67 19.4 65 18.3 93 93 SE 5 7 29.91 1013 10 16 0.00 0.00
3:42 am 03:42 Cloudy 68 20 66 18.9 93 93 SE 3 6 29.90 1013 9 14 0.00 0.00
3:53 am 03:53 Cloudy 68 20 66 18.9 93 93 ESE 5 7 29.95 1014 9 14 0.00 0.00
4:20 am 04:20 Cloudy with Mist and Fog 69 20.6 67 19.4 93 93 SE 3 6 29.90 1012 2 3 0.00 0.00
4:25 am 04:25 Mostly Cloudy with Mist and Fog 69 20.6 68 20 96 96 SE 5 7 29.90 1012 1 1 0.00 0.00
4:40 am 04:40 Mostly Cloudy with Fog 69 20.6 68 20 96 96 SE 6 9 29.90 1012 0 0 0.00 0.00
4:53 am 04:53 Mostly Cloudy with Fog 69 20.6 68 20 96 96 SE 6 9 29.94 1014 0 0 0.00 0.00
5:23 am 05:23 Mostly Cloudy with Fog 69 20.6 68 20 96 96 SE 6 9 29.90 1012 1 1 0.00 0.00
5:51 am 05:51 Mostly Cloudy with Fog 70 21 68 20 94 94 SE 6 9 29.89 1012 1 1 0.00 0.00
5:53 am 05:53 Mostly Cloudy with Fog 69 20.6 68 20 96 96 SE 6 9 29.95 1014 1 1 0.00 0.00
6:06 am 06:06 Mostly Cloudy with Fog 69 20.6 68 20 96 96 SE 6 9 29.91 1013 1 1 0.00 0.00
6:45 am 06:45 Mostly Cloudy with Fog 69 20.6 68 20 96 96 SE 8 13 29.92 1013 1 1 0.00 0.00
6:53 am 06:53 Mostly Cloudy with Fog 69 20.6 68 20 96 96 SE 7 11 29.96 1014 0 0 0.00 0.00
7:11 am 07:11 Mostly Cloudy with Fog 69 20.6 68 20 96 96 SE 8 13 29.91 1013 1 1 0.00 0.00
7:24 am 07:24 Cloudy with Mist and Fog 69 20.6 68 20 96 96 SE 8 13 29.91 1013 2 2 0.00 0.00
7:33 am 07:33 Cloudy with Mist and Fog 69 20.6 68 20 96 96 SE 9 15 29.91 1013 3 4 0.00 0.00
7:43 am 07:43 Cloudy with Mist and Fog 69 20.6 68 20 96 96 SE 9 15 29.90 1012 3 5 0.00 0.00
7:53 am 07:53 Cloudy with Mist and Fog 70 21.1 68 20 93 93 SE 7 11 29.94 1014 3 5 0.00 0.00
8:28 am 08:28 Partly Cloudy 70 21.1 69 20.6 97 97 SE 7 11 29.90 1013 7 11 0.00 0.00
8:53 am 08:53 Mostly Sunny 72 22.2 69 20.6 91 91 SE 7 11 29.95 1014 9 14 0.00 0.00
9:53 am 09:53 Sunny 76 24.4 70 21.1 82 82 SSE 8 13 29.94 1014 10 16 0.00 0.00
10:53 am 10:53 Partly Cloudy 80 26.7 69 20.6 69 69 SSW 14 22 29.93 1014 10 16 0.00 0.00
11:36 am 11:36 Mostly Cloudy 81 27.2 69 20.6 67 67 SSW 14 22 29.83 1010 10 16 0.00 0.00
11:53 am 11:53 Mostly Cloudy 82 27.8 69 20.6 65 65 SSW 13 20 29.91 1013 10 16 0.00 0.00
12:53 pm 12:53 Partly Cloudy 81 27.2 68 20 65 65 SSW 13 20 29.91 1013 10 16 0.00 0.00
1:53 pm 13:53 Partly Cloudy 83 28.3 68 20 61 61 S 16 26 29.88 1012 10 16 0.00 0.00
2:53 pm 14:53 Mostly Cloudy 85 29.4 69 20.6 59 59 S 12 19 29.86 1011 10 16 0.00 0.00
3:53 pm 15:53 Mostly Cloudy 84 28.9 68 20 59 59 S 12 19 29.85 1011 10 16 0.00 0.00
4:53 pm 16:53 Partly Cloudy 86 30 68 20 55 55 SW 13 20 29.83 1010 10 16 0.00 0.00
5:53 pm 17:53 Sunny 85 29.4 68 20 57 57 SSW 14 22 29.81 1010 10 16 0.00 0.00
6:53 pm 18:53 Sunny 85 29.4 68 20 57 57 S 12 19 29.80 1009 10 16 0.00 0.00
7:53 pm 19:53 Sunny 83 28.3 69 20.6 63 63 S 8 13 29.79 1009 10 16 0.00 0.00
8:53 pm 20:53 Clear 78 25.6 69 20.6 74 74 SSE 8 13 29.80 1009 10 16 0.00 0.00
9:53 pm 21:53 Clear 77 25 69 20.6 77 77 SSE 7 11 29.81 1010 10 16 0.00 0.00
10:53 pm 22:53 Clear 76 24.4 70 21.1 82 82 SSE 7 11 29.82 1010 10 16 0.00 0.00
11:53 pm 23:53 Clear 76 24.4 70 21.1 82 82 SSE 7 11 29.82 1010 10 16 0.00 0.00

Powered by AerisWeather